Temperature
17 17 17 17 17 17 17 16 16 16 16 16 16 16 16 16 16 16 16 16 16 15 15 15 15 15 15 15 15 15 14 14 14 14 14 14 14 14
17 16 16 16 16 16 16 16 16 16 16 16 16 16 16 16 16 15 15 15 15 15 15 15 15 15 14 14 14 14 14 14 14 14 14 13 13 13
16 16 16 16 16 16 16 16 16 16 16 15 15 15 15 15 15 15 15 15 15 15 15 14 14 14 14 14 14 13 13 13 13 13 13 13 13 13
16 16 16 15 15 15 15 15 15 15 15 15 15 15 15 15 14 14 14 14 14 14 14 14 14 13 13 13 13 13 13 13 13 12 12 12 12 12
15 15 15 15 15 15 15 15 15 15 15 14 14 14 14 14 14 14 14 13 13 13 13 13 13 13 12 12 12 12 12 12 12 12 12 12 12 11
15 15 15 15 15 15 15 14 14 14 14 14 14 14 14 13 13 13 13 13 13 12 12 12 12 12 12 12 11 11 11 11 11 11 11 11 11 11
15 14 14 14 14 14 14 14 14 14 14 14 13 13 13 13 13 13 12 12 12 12 12 11 11 11 11 11 11 11 10 10 10 10 10 10 10 10
14 14 14 14 14 14 13 13 13 13 13 13 13 12 12 12 12 12 12 12 11 11 11 11 10 10 10 10 10 10 10 9 9 9 9 9 9 9
14 13 13 13 13 13 13 13 13 12 12 12 12 12 12 12 11 11 11 11 11 11 11 10 10 10 9 9 9 9 9 8 8 8 8 8 8 8
13 13 13 12 12 12 12 12 12 12 11 11 11 11 11 11 11 11 11 10 10 10 10 9 9 9 9 8 8 8 8 8 8 8 8 7 7 7
12 12 12 12 11 11 11 11 11 11 11 10 10 10 10 10 10 10 10 10 10 9 9 9 8 8 8 8 8 7 7 7 7 7 7 7 7 7
12 11 11 11 11 11 11 11 10 10 10 10 10 10 10 10 10 9 9 9 9 8 8 8 8 8 7 7 7 7 7 7 7 6 6 6 6 6
11 11 11 10 10 10 10 10 10 10 9 9 9 9 9 9 9 9 9 8 8 8 8 8 7 7 7 7 7 6 6 6 6 6 6 6 6 6
10 10 10 10 10 10 9 9 9 9 9 9 9 9 8 8 8 8 8 8 8 8 7 7 7 7 7 7 6 6 6 6 6 6 6 6 5 5
10 9 9 9 9 9 9 9 9 9 9 9 8 8 8 8 8 8 8 8 7 7 7 7 7 7 7 6 6 6 6 6 6 6 6 5 5 5
9 9 9 9 9 9 8 8 8 8 8 8 8 8 8 8 7 7 7 7 7 7 7 6 6 6 6 6 6 6 6 6 5 5 5 5 5 5
9 9 9 8 8 8 8 8 8 8 8 8 7 7 7 7 7 7 7 7 6 6 6 6 6 6 6 6 6 6 6 5 5 5 5 5 5 5
9 8 8 8 8 8 7 7 7 7 7 7 7 7 7 7 7 6 6 6 6 6 6 6 6 6 6 6 6 6 5 5 5 5 5 5 5 5
8 8 8 8 7 7 7 7 7 7 7 7 7 7 7 7 6 6 6 6 6 6 6 6 6 6 6 6 6 6 5 5 5 5 5 5 5 5
8 8 8 7 7 7 7 7 7 7 7 6 6 6 6 6 6 6 6 6 6 6 6 6 6 6 6 6 6 6 6 5 5 5 5 5 5 5
8 7 7 7 7 7 7 7 7 6 6 6 6 6 6 6 6 6 6 6 6 6 6 6 6 6 6 6 6 6 6 5 5 5 5 5 5 5
7 7 7 7 7 7 7 7 7 6 6 6 6 6 6 6 6 6 6 6 6 6 5 5 5 6 6 6 6 6 5 5 5 5 5 5 5 5
7 7 7 7 7 7 7 6 6 6 6 6 6 6 6 6 6 6 6 5 5 5 5 5 5 5 5 5 5 5 5 5 5 5 5 5 5 5
Wind_Speed
2 2 2 2 2 2 2 3 3 2 3 3 2 2 1 2 3 4 5 6 8 10 10 9 8 7 7 6 6 6 5 5 5 6 7 8 8 9
2 1 2 2 1 1 1 1 3 3 2 2 2 2 2 1 1 1 2 3 5 7 7 7 6 6 5 4 3 3 3 2 3 4 4 5 6 7
1 1 2 1 1 1 1 1 0 2 2 2 1 2 2 2 2 2 2 2 1 2 4 4 4 4 4 3 2 1 1 1 1 1 2 3 4 5
1 0 1 1 0 1 1 0 0 1 2 2 2 2 2 1 2 2 3 3 4 4 3 4 5 5 4 4 3 3 2 2 2 1 1 1 1 1
0 0 0 0 1 1 1 1 0 0 1 1 2 1 1 2 2 2 3 3 4 5 6 6 6 6 6 5 5 5 4 4 3 3 3 2 2 2
2 2 2 1 1 1 1 1 1 1 1 1 0 1 1 1 2 2 2 2 2 4 6 6 7 7 7 6 6 6 5 5 5 5 5 6 5 5
4 4 5 7 8 5 3 2 2 1 1 2 1 1 2 1 1 0 1 1 2 2 3 4 5 6 7 6 7 7 8 7 6 6 7 6 6 6
4 5 6 7 9 10 10 9 6 4 2 2 1 1 1 1 1 1 1 1 0 2 2 3 3 3 4 5 5 6 7 7 7 7 6 6 5 5
4 4 5 5 6 5 8 10 10 10 7 3 3 1 1 1 1 1 1 1 1 0 2 2 2 3 3 5 6 6 6 5 5 5 5 5 5 5
6 5 5 5 5 4 5 7 6 6 5 4 3 2 2 1 0 1 2 2 3 3 3 2 1 1 2 4 4 4 4 5 5 5 5 5 5 5
6 6 5 5 6 5 5 5 5 5 8 9 8 7 8 9 6 4 3 3 2 2 2 2 1 1 2 2 3 3 4 4 4 5 5 5 5 4
5 5 7 6 6 6 4 5 5 3 4 5 6 7 8 9 9 5 3 3 2 1 2 2 1 1 1 2 2 3 3 3 4 4 4 4 3 3
4 4 4 7 8 8 6 4 2 2 3 3 4 4 5 5 6 6 4 3 3 1 1 2 2 1 1 0 2 2 2 2 2 3 3 3 2 0
3 2 4 8 9 8 6 6 7 5 3 4 4 4 4 3 3 5 7 6 4 2 2 3 2 2 2 1 1 2 2 2 2 2 3 3 3 2
3 5 6 8 8 7 9 9 7 4 4 3 3 2 2 2 4 5 7 8 9 8 7 5 3 2 2 1 0 1 1 2 2 1 1 2 2 1
4 5 7 9 8 7 7 6 5 3 3 3 2 2 3 4 4 4 4 4 4 5 7 8 5 3 2 1 1 1 1 1 2 2 1 2 3 3
3 4 5 5 5 6 5 5 5 5 5 4 4 4 4 4 3 3 3 3 4 3 4 4 6 5 2 2 1 1 1 1 1 1 1 2 2 4
6 5 4 4 4 4 4 4 4 4 4 4 4 4 3 3 3 3 3 3 3 2 2 3 3 4 4 3 1 1 1 1 2 1 0 0 3 4
6 4 3 3 3 3 3 3 3 3 3 4 3 3 3 3 3 3 3 3 2 2 2 2 2 2 2 2 5 2 2 1 1 1 1 1 3 4
3 3 2 2 2 2 2 2 2 3 3 3 3 3 3 2 2 2 2 1 1 2 2 3 2 0 2 2 3 4 4 3 1 1 2 1 3 5
2 2 2 2 2 2 2 2 2 2 2 2 3 3 2 2 2 2 2 2 2 1 2 3 4 4 1 1 2 4 4 6 5 4 2 1 2 3
2 2 1 2 2 2 2 2 2 2 2 2 2 2 2 2 2 1 1 1 1 1 2 3 4 3 2 1 2 3 4 5 7 7 7 8 4 3
2 2 1 1 2 2 2 2 2 1 1 1 2 2 2 2 1 1 1 1 1 2 2 3 3 3 2 1 2 3 4 4 3 4 5 10 11 13
Wind_Direction
217 211 214 238 227 215 202 185 182 234 279 283 295 314 298 219 228 207 211 212 208 208 209 212 216 220 221 219 223 226 225 228 237 245 250 252 252 249
210 208 240 265 273 268 239 207 184 187 227 285 289 301 343 14 47 163 193 199 209 205 202 203 207 209 200 197 201 204 209 219 237 245 248 249 248 250
234 218 248 259 286 321 338 358 187 162 201 282 305 330 355 9 37 64 68 94 83 181 189 182 176 169 159 161 167 170 177 172 196 228 249 252 253 251
245 219 277 274 24 339 352 12 13 168 182 245 308 339 348 10 58 57 65 74 72 72 102 134 139 136 133 133 133 127 120 109 96 82 60 36 7 323
105 128 275 56 12 351 11 10 343 72 137 184 283 325 355 32 44 44 58 60 70 70 78 85 98 104 106 110 112 111 108 99 91 84 77 71 62 55
59 60 55 83 76 50 42 18 44 61 78 111 343 351 7 10 51 46 32 25 43 54 65 77 84 89 94 96 96 97 99 97 92 89 84 79 73 68
56 59 64 73 71 69 69 49 52 68 84 91 63 43 29 27 6 331 103 79 46 48 58 55 59 61 63 76 83 86 88 90 92 93 91 85 80 76
74 64 63 60 66 68 69 68 71 81 86 84 75 66 0 348 358 63 110 102 47 19 61 47 53 53 46 63 78 90 93 91 89 89 89 86 82 77
74 67 66 60 61 64 64 63 59 61 72 99 89 55 345 320 6 59 78 93 89 20 73 55 36 52 45 55 71 73 77 76 77 79 77 76 73 70
61 64 69 55 59 73 72 66 56 45 54 66 82 44 29 5 147 156 147 97 68 42 64 83 27 36 42 54 67 65 60 60 54 51 56 59 61 58
56 58 63 54 50 68 76 72 55 34 50 60 61 54 52 53 60 72 69 84 60 16 20 77 64 49 36 17 18 28 29 34 38 41 48 56 56 53
55 49 52 53 47 57 76 80 68 27 31 37 38 36 38 44 52 67 93 99 89 33 359 62 54 60 48 349 340 353 6 9 14 20 25 29 35 46
68 46 35 50 57 58 69 71 76 69 53 55 41 30 29 29 32 43 62 98 101 72 323 81 84 66 88 331 313 304 311 332 352 353 359 355 349 49
79 53 44 53 55 55 58 57 60 65 63 59 53 39 31 22 16 34 48 55 65 82 65 90 100 111 96 57 325 318 306 309 302 304 316 336 344 334
74 74 64 57 50 45 43 48 53 58 64 63 52 28 11 14 29 37 40 46 44 44 45 59 95 102 98 104 338 323 326 326 332 315 307 293 284 296
65 56 54 52 51 42 36 37 42 57 80 76 60 34 30 36 37 37 41 36 39 14 19 39 59 98 92 89 104 30 347 311 321 327 328 316 307 284
75 55 49 45 43 39 34 31 36 45 53 50 54 49 43 40 28 27 46 50 52 23 359 359 23 49 78 123 91 23 344 325 301 309 1 338 306 282
81 70 62 58 58 56 52 37 36 45 48 55 57 56 53 49 34 28 42 54 49 17 358 348 7 21 16 355 240 175 311 296 303 313 83 306 296 291
80 78 76 73 69 68 66 60 41 30 41 56 56 48 50 49 51 44 40 45 37 8 342 348 28 64 48 342 312 276 191 261 313 327 295 229 253 273
78 92 90 89 88 84 77 67 49 40 43 46 45 40 42 53 52 39 37 42 31 8 354 349 353 348 191 222 263 295 276 209 216 263 284 299 286 294
79 90 102 109 106 102 95 84 69 55 45 41 37 35 33 49 38 11 5 16 37 27 347 310 290 304 249 56 343 313 300 281 243 215 219 265 307 320
120 116 116 123 122 117 105 91 73 59 45 42 28 20 18 37 31 14 17 20 350 305 293 302 323 356 29 24 303 290 301 313 313 291 257 231 197 220
159 148 131 125 123 122 112 99 87 59 34 29 22 15 18 16 1 15 7 353 341 335 329 328 340 353 343 317 299 293 295 301 314 325 308 300 273 260
Height
1560 1561 1561 1561 1561 1561 1561 1561 1562 1560 1559 1559 1558 1558 1557 1557 1556 1555 1555 1555 1555 1555 1555 1555 1555 1555 1555 1555 1555 1555 1555 1555 1555 1555 1555 1555 1555 1555
1557 1558 1558 1558 1558 1558 1558 1558 1558 1558 1556 1556 1555 1555 1554 1554 1553 1552 1551 1551 1551 1551 1551 1551 1551 1551 1551 1551 1551 1551 1551 1550 1550 1550 1550 1550 1551 1551
1555 1555 1555 1555 1555 1555 1555 1555 1555 1555 1553 1553 1553 1552 1551 1550 1549 1549 1548 1547 1547 1547 1547 1548 1548 1547 1547 1547 1547 1547 1546 1546 1546 1546 1546 1545 1545 1545
1552 1552 1552 1552 1552 1552 1552 1552 1552 1551 1551 1550 1550 1549 1549 1548 1547 1546 1546 1545 1545 1545 1545 1545 1544 1544 1543 1543 1543 1542 1542 1542 1542 1542 1541 1541 1540 1540
1549 1549 1549 1549 1549 1549 1549 1549 1549 1549 1548 1548 1547 1547 1546 1546 1545 1544 1544 1543 1543 1543 1542 1542 1542 1541 1541 1541 1540 1539 1539 1538 1538 1538 1537 1537 1536 1536
1547 1547 1547 1546 1546 1547 1547 1547 1546 1546 1545 1545 1545 1544 1543 1543 1543 1542 1542 1542 1541 1541 1540 1540 1540 1539 1538 1538 1537 1537 1536 1535 1535 1534 1534 1533 1533 1532
1546 1545 1545 1545 1544 1544 1544 1544 1544 1543 1543 1542 1542 1542 1541 1540 1540 1540 1540 1539 1539 1539 1539 1538 1538 1537 1536 1536 1535 1534 1534 1533 1532 1531 1531 1530 1530 1529
1545 1545 1544 1544 1543 1543 1543 1543 1542 1542 1541 1540 1539 1539 1539 1539 1539 1538 1538 1538 1537 1538 1537 1537 1536 1535 1535 1534 1533 1533 1532 1532 1531 1530 1529 1529 1528 1527
1544 1544 1544 1543 1543 1542 1542 1542 1541 1540 1540 1540 1538 1538 1538 1537 1537 1536 1536 1536 1535 1535 1535 1534 1534 1534 1533 1533 1532 1532 1531 1531 1530 1529 1529 1528 1527 1527
1545 1544 1544 1543 1543 1543 1542 1541 1540 1540 1539 1538 1538 1538 1537 1537 1536 1536 1535 1535 1534 1534 1534 1533 1533 1532 1533 1532 1532 1531 1530 1530 1529 1529 1528 1527 1527 1526
1545 1544 1544 1544 1543 1543 1542 1541 1540 1540 1540 1539 1538 1538 1537 1536 1535 1534 1534 1533 1532 1533 1533 1532 1532 1532 1532 1532 1531 1531 1530 1530 1529 1528 1527 1527 1526 1525
1545 1545 1544 1544 1544 1543 1542 1541 1540 1540 1540 1540 1539 1538 1537 1536 1535 1534 1533 1533 1532 1532 1532 1532 1531 1531 1531 1532 1531 1531 1530 1530 1529 1528 1527 1526 1525 1524
1545 1545 1545 1545 1544 1543 1543 1542 1541 1541 1541 1540 1539 1539 1537 1536 1536 1535 1534 1533 1533 1532 1532 1531 1531 1530 1531 1531 1531 1531 1530 1529 1529 1528 1527 1526 1525 1524
1546 1546 1546 1546 1545 1544 1543 1543 1542 1542 1541 1541 1540 1539 1538 1538 1537 1536 1535 1535 1534 1533 1533 1532 1531 1531 1531 1530 1531 1531 1530 1530 1529 1528 1527 1526 1525 1524
1547 1547 1547 1547 1546 1545 1545 1544 1543 1543 1542 1541 1541 1540 1540 1539 1539 1538 1537 1536 1535 1535 1534 1533 1533 1532 1532 1531 1531 1531 1530 1530 1529 1528 1527 1526 1525 1523
1548 1548 1548 1548 1547 1547 1546 1545 1545 1544 1543 1543 1542 1542 1541 1540 1539 1539 1539 1538 1537 1536 1536 1535 1534 1534 1533 1532 1532 1531 1531 1530 1529 1527 1526 1525 1524 1523
1550 1550 1549 1549 1549 1548 1548 1547 1547 1546 1545 1544 1544 1544 1543 1542 1542 1542 1541 1540 1539 1538 1538 1537 1536 1535 1534 1534 1533 1532 1531 1530 1529 1527 1526 1525 1524 1523
1552 1551 1551 1550 1550 1550 1550 1549 1549 1548 1547 1547 1546 1546 1545 1544 1544 1543 1542 1542 1541 1540 1539 1538 1537 1536 1535 1534 1534 1532 1531 1530 1529 1528 1526 1525 1523 1522
1553 1553 1553 1553 1552 1552 1552 1551 1550 1550 1549 1548 1548 1547 1546 1546 1545 1545 1544 1543 1542 1541 1541 1539 1538 1537 1535 1534 1534 1533 1531 1530 1529 1527 1526 1525 1523 1521
1555 1555 1555 1554 1554 1554 1553 1553 1552 1551 1551 1550 1549 1549 1548 1547 1547 1546 1545 1544 1543 1542 1542 1541 1539 1538 1536 1536 1534 1533 1532 1530 1528 1527 1525 1524 1522 1521
1556 1556 1556 1556 1555 1555 1555 1554 1553 1553 1552 1551 1551 1550 1549 1549 1548 1547 1546 1545 1544 1543 1542 1541 1540 1539 1537 1536 1534 1532 1531 1530 1528 1526 1524 1522 1520 1519
1557 1557 1557 1557 1557 1556 1556 1555 1555 1554 1553 1552 1552 1551 1550 1550 1549 1548 1547 1546 1545 1544 1542 1541 1540 1538 1536 1535 1533 1531 1530 1529 1527 1526 1524 1522 1519 1517
1558 1558 1558 1558 1558 1557 1557 1556 1555 1555 1554 1553 1552 1551 1550 1550 1549 1548 1547 1545 1544 1543 1542 1540 1539 1537 1536 1534 1532 1530 1529 1527 1525 1523 1522 1520 1518 1516